TimeEDT,TemperatureF,Dew PointF,Humidity,Sea Level PressureIn,VisibilityMPH,Wind Direction,Wind SpeedMPH,Gust SpeedMPH,PrecipitationIn,Events,Conditions,WindDirDegrees,DateUTC
12:53 AM,63.0,60.1,90,30.11,10.0,Calm,Calm,-,N/A,,Clear,0,2013-07-13 04:53:00
1:53 AM,62.1,59.0,90,30.12,10.0,Calm,Calm,-,N/A,,Clear,0,2013-07-13 05:53:00
2:53 AM,62.1,57.9,86,30.13,10.0,Calm,Calm,-,N/A,,Clear,0,2013-07-13 06:53:00
3:53 AM,63.0,57.0,81,30.14,10.0,South,3.5,-,N/A,,Clear,180,2013-07-13 07:53:00
4:53 AM,62.1,55.9,80,30.15,10.0,South,3.5,-,N/A,,Clear,170,2013-07-13 08:53:00
5:53 AM,61.0,57.0,87,30.15,10.0,South,5.8,-,N/A,,Clear,170,2013-07-13 09:53:00
6:53 AM,62.1,57.9,86,30.15,10.0,South,3.5,-,N/A,,Partly Cloudy,180,2013-07-13 10:53:00
7:53 AM,66.0,60.1,81,30.17,10.0,Calm,Calm,-,N/A,,Partly Cloudy,0,2013-07-13 11:53:00
8:53 AM,71.1,61.0,70,30.19,10.0,South,4.6,-,N/A,,Partly Cloudy,170,2013-07-13 12:53:00
9:53 AM,75.9,61.0,60,30.17,10.0,Variable,4.6,-,N/A,,Partly Cloudy,0,2013-07-13 13:53:00
10:53 AM,79.0,60.1,52,30.17,10.0,Variable,6.9,-,N/A,,Scattered Clouds,0,2013-07-13 14:53:00
11:53 AM,81.0,55.9,42,30.17,10.0,SW,4.6,-,N/A,,Scattered Clouds,220,2013-07-13 15:53:00
12:53 PM,82.9,57.0,41,30.18,10.0,Calm,Calm,-,N/A,,Scattered Clouds,0,2013-07-13 16:53:00
1:53 PM,84.0,57.0,40,30.17,10.0,Variable,6.9,-,N/A,,Scattered Clouds,0,2013-07-13 17:53:00
2:53 PM,86.0,55.0,35,30.16,10.0,South,5.8,-,N/A,,Partly Cloudy,170,2013-07-13 18:53:00
3:53 PM,86.0,55.0,35,30.15,10.0,Calm,Calm,-,N/A,,Scattered Clouds,0,2013-07-13 19:53:00
4:53 PM,82.9,60.1,46,30.14,10.0,NNE,8.1,-,N/A,,Scattered Clouds,30,2013-07-13 20:53:00
5:53 PM,82.9,60.1,46,30.14,10.0,NE,8.1,-,N/A,,Scattered Clouds,40,2013-07-13 21:53:00
6:53 PM,82.0,59.0,45,30.15,10.0,NE,8.1,-,N/A,,Scattered Clouds,40,2013-07-13 22:53:00
7:53 PM,81.0,59.0,47,30.15,10.0,ENE,5.8,-,N/A,,Partly Cloudy,60,2013-07-13 23:53:00
8:53 PM,78.1,61.0,56,30.16,10.0,NE,4.6,-,N/A,,Partly Cloudy,50,2013-07-14 00:53:00
9:53 PM,75.0,63.0,66,30.17,10.0,NNE,4.6,-,N/A,,Scattered Clouds,30,2013-07-14 01:53:00
10:53 PM,69.1,62.1,78,30.19,10.0,Calm,Calm,-,N/A,,Clear,0,2013-07-14 02:53:00
11:53 PM,66.0,61.0,84,30.19,9.0,Calm,Calm,-,N/A,,Clear,0,2013-07-14 03:53:00